Location: Góry Miechowskie
(50.3599°N, 20.1803°E)
Time: 00:51:47
(UTC+00:00)

Vanguard 2 - Pass Details

Date: 13 September 2024
Orbit: 552 x 2910 km, 32.9° (Epoch: 09 October)

Event Time Altitude Azimuth Distance (km) Brightness Sun altitude
Rises 06:27:01 0° 252° (WSW) 4,172 10.8 20.3°
Reaches altitude 10° 06:30:05 10° 239° (WSW) 3,525 10.6 20.7°
Maximum altitude 06:37:20 25° 189° (S) 3,181 11.0 21.8°
Drops below altitude 10° 06:47:24 10° 142° (SE) 5,035 12.9 23.3°
Sets 06:52:59 0° 132° (SE) 6,371 13.5 24.1°
